CW1459 Weather Reports


Display with metric or nautical units.
time (UTC)temp
F
wind
direction
speed
MPH
gust
MPH
rain 1hr
in
rain 24hr
in
rain mn
in
humidity
%
barometer
mb
20260507071336 53 338 4.0 9.0 0.00 0.18 0.00 80 1009.8
20260507070337 54 351 2.0 3.0 0.00 0.18 0.00 81 1010.1
20260507065315 54 5 1.0 2.0 0.00 0.18 0.00 81 1010.1
20260507064322 54 349 2.0 4.0 0.00 0.18 0.00 81 1010.0
20260507063323 54 348 2.0 4.0 0.00 0.18 0.00 81 1010.0
20260507062329 54 331 1.0 2.0 0.00 0.18 0.00 82 1010.1
20260507061400 54 336 1.0 4.0 0.00 0.18 0.00 82 1010.1
20260507060341 54 333 2.0 4.0 0.00 0.18 0.00 81 1010.1
20260507055320 54 5 1.0 2.0 0.00 0.18 0.00 81 1010.1
20260507054340 54 25 1.0 6.0 0.00 0.18 0.00 80 1009.9
20260507053316 55 338 2.0 3.0 0.00 0.18 0.00 80 1009.9
20260507052315 55 334 2.0 4.0 0.00 0.18 0.00 80 1009.9
20260507051338 55 18 2.0 5.0 0.00 0.18 0.00 79 1009.9
20260507050401 55 317 3.0 6.0 0.00 0.18 0.00 79 1009.9
20260507045400 55 346 4.0 8.0 0.00 0.18 0.00 79 1009.8
20260507044318 55 5 4.0 10.0 0.00 0.18 0.00 80 1009.7
20260507043353 55 351 4.0 9.0 0.00 0.18 0.00 80 1009.6
20260507042337 55 343 2.0 4.0 0.00 0.18 0.00 81 1009.7
20260507041318 55 341 3.0 6.0 0.00 0.18 0.00 82 1010.1
20260507040324 55 345 3.0 9.0 0.00 0.18 0.00 82 1010.1
20260507035320 55 338 4.0 8.0 0.00 0.18 0.18 82 1010.0
20260507034339 56 343 2.0 8.0 0.00 0.18 0.18 83 1009.5
20260507033328 56 320 5.0 12.0 0.00 0.18 0.18 82 1009.7
20260507032334 56 315 6.0 11.0 0.00 0.18 0.18 83 1009.6
20260507031315 56 343 4.0 8.0 0.00 0.18 0.18 83 1009.7
20260507030336 56 325 6.0 12.0 0.00 0.18 0.18 83 1009.7
20260507025338 56 325 6.0 10.0 0.00 0.18 0.18 82 1009.7
20260507024352 57 339 6.0 10.0 0.00 0.18 0.18 82 1009.3
20260507023341 57 5 10.0 18.0 0.00 0.18 0.18 82 1009.4
20260507022335 57 333 7.0 12.0 0.00 0.18 0.18 83 1009.2
20260507021316 57 351 5.0 11.0 0.00 0.18 0.18 83 1009.1
20260507020316 57 348 4.0 9.0 0.00 0.18 0.18 83 1009.2
20260507015318 58 98 4.0 8.0 0.00 0.18 0.18 83 1009.3
20260507014320 58 43 1.0 8.0 0.00 0.18 0.18 83 1009.1
20260507013317 59 11 4.0 8.0 0.00 0.18 0.18 83 1008.8
20260507012319 59 333 5.0 8.0 0.00 0.18 0.18 83 1008.9
20260507011340 59 360 5.0 12.0 0.00 0.18 0.18 83 1008.8
20260507010340 59 346 5.0 8.0 0.00 0.18 0.18 83 1008.9
20260507005336 59 338 6.0 14.0 0.00 0.18 0.18 83 1009.2
20260507004314 59 338 4.0 10.0 0.01 0.18 0.18 84 1009.4
20260507003333 60 351 5.0 11.0 0.01 0.18 0.18 85 1008.9
20260507002315 61 5 4.0 8.0 0.01 0.18 0.18 86 1008.8
20260507001355 61 334 3.0 5.0 0.01 0.18 0.18 86 1008.8
20260507000314 61 271 2.0 9.0 0.01 0.18 0.18 86 1008.7
20260506235339 61 329 3.0 9.0 0.01 0.18 0.18 87 1008.5
20260506234319 62 303 4.0 8.0 0.00 0.17 0.17 88 1008.1
20260506233356 63 281 6.0 9.0 0.00 0.17 0.17 90 1007.9
20260506232338 63 319 1.0 8.0 0.00 0.17 0.17 90 1007.4
20260506231339 64 321 3.0 7.0 0.00 0.17 0.17 91 1007.4
20260506230340 64 335 2.0 6.0 0.00 0.17 0.17 91 1007.2
20260506225314 64 297 3.0 6.0 0.00 0.17 0.17 91 1007.4
20260506224327 65 162 1.0 3.0 0.00 0.17 0.17 91 1007.3
20260506223345 65 162 0.0 1.0 0.00 0.17 0.17 92 1007.0
20260506222333 65 162 1.0 3.0 0.00 0.17 0.17 92 1006.9
20260506221318 65 162 0.0 0.0 0.00 0.17 0.17 92 1006.9
20260506220338 65 162 0.0 2.0 0.01 0.17 0.17 92 1006.9
20260506215333 65 286 1.0 3.0 0.01 0.17 0.17 91 1006.7
20260506214314 65 244 1.0 3.0 0.01 0.17 0.17 91 1006.9
20260506213332 65 234 2.0 2.0 0.01 0.17 0.17 91 1006.7
20260506212314 65 234 0.0 3.0 0.01 0.17 0.17 90 1006.5
20260506211340 65 234 1.0 4.0 0.01 0.17 0.17 90 1006.4
20260506210315 66 19 1.0 3.0 0.00 0.16 0.16 89 1006.1
20260506205313 66 264 1.0 2.0 0.00 0.16 0.16 89 1005.9
20260506204339 65 264 0.0 3.0 0.00 0.16 0.16 89 1005.9
20260506203332 65 219 1.0 7.0 0.00 0.16 0.16 89 1005.8
20260506202324 65 151 2.0 3.0 0.00 0.16 0.16 89 1005.7
20260506201339 65 130 1.0 3.0 0.00 0.16 0.16 89 1005.9
20260506200333 65 161 1.0 6.0 0.00 0.16 0.16 89 1006.0
20260506195318 65 154 2.0 5.0 0.00 0.16 0.16 89 1006.0
20260506194315 65 153 3.0 5.0 0.00 0.16 0.16 89 1006.0
20260506193316 65 175 2.0 5.0 0.00 0.16 0.16 89 1005.9
20260506192333 65 194 2.0 7.0 0.00 0.16 0.16 89 1006.1
20260506191317 66 174 3.0 7.0 0.00 0.16 0.16 90 1006.1
20260506190338 66 118 3.0 7.0 0.00 0.16 0.16 90 1006.1
20260506185339 65 158 2.0 6.0 0.00 0.16 0.16 92 1006.2
20260506184342 64 156 2.0 5.0 0.00 0.16 0.16 90 1006.4
20260506183314 64 159 2.0 7.0 0.00 0.16 0.16 90 1006.5
20260506182320 64 146 3.0 8.0 0.00 0.16 0.16 88 1006.6
20260506181338 65 189 4.0 9.0 0.00 0.16 0.16 88 1006.6
20260506180313 65 167 4.0 8.0 0.00 0.16 0.16 87 1006.5
20260506175314 65 223 6.0 10.0 0.00 0.16 0.16 85 1006.4
20260506174314 66 202 6.0 11.0 0.00 0.16 0.16 85 1006.5
20260506173322 65 172 6.0 11.0 0.00 0.16 0.16 84 1006.3
20260506172315 65 181 5.0 9.0 0.00 0.16 0.16 84 1006.2
20260506171318 65 147 5.0 12.0 0.00 0.16 0.16 83 1006.1
20260506170324 65 168 4.0 11.0 0.00 0.16 0.16 83 1006.2
20260506165336 65 178 6.0 11.0 0.00 0.16 0.16 83 1006.2
20260506164316 65 202 6.0 12.0 0.00 0.16 0.16 82 1006.2
20260506163339 65 151 4.0 14.0 0.00 0.16 0.16 84 1006.2
20260506162338 65 221 7.0 14.0 0.00 0.16 0.16 83 1006.3
20260506161349 65 145 7.0 12.0 0.00 0.16 0.16 85 1006.2
20260506160312 64 136 8.0 12.0 0.00 0.16 0.16 86 1006.2
20260506155338 64 150 9.0 20.0 0.00 0.16 0.16 86 1006.3
20260506154314 63 192 7.0 16.0 0.01 0.16 0.16 87 1006.5
20260506153339 64 197 8.0 16.0 0.01 0.16 0.16 88 1006.4
20260506152316 63 217 7.0 12.0 0.02 0.16 0.16 89 1006.2
20260506151327 64 165 6.0 15.0 0.02 0.16 0.16 91 1006.2
20260506150330 63 207 9.0 18.0 0.03 0.16 0.16 91 1006.2
20260506145338 62 159 5.0 11.0 0.04 0.16 0.16 92 1006.4
20260506144312 61 171 7.0 14.0 0.03 0.15 0.15 91 1006.3
20260506143314 61 163 7.0 13.0 0.04 0.15 0.15 91 1006.4
20260506142357 61 140 5.0 10.0 0.04 0.14 0.14 91 1006.8
20260506141313 61 184 7.0 18.0 0.06 0.14 0.14 90 1007.0
20260506140333 61 146 7.0 16.0 0.05 0.13 0.13 90 1007.0
20260506135327 61 173 6.0 14.0 0.04 0.12 0.12 90 1006.9
20260506134355 61 222 7.0 15.0 0.06 0.12 0.12 90 1006.8
20260506133337 61 169 9.0 14.0 0.06 0.11 0.11 90 1006.7
20260506132355 61 136 7.0 14.0 0.05 0.10 0.10 89 1006.7
20260506131313 61 175 10.0 15.0 0.03 0.08 0.08 89 1006.8
20260506130330 61 164 8.0 14.0 0.04 0.08 0.08 89 1006.9
20260506125332 61 153 7.0 11.0 0.05 0.08 0.08 88 1006.9
20260506124333 61 208 8.0 17.0 0.04 0.06 0.06 87 1006.9
20260506123330 61 171 6.0 14.0 0.03 0.05 0.05 87 1006.8
20260506122316 61 188 7.0 14.0 0.04 0.05 0.05 86 1006.8
20260506121338 61 132 9.0 16.0 0.04 0.05 0.05 86 1006.9
20260506120314 61 128 7.0 17.0 0.04 0.04 0.04 85 1007.1
20260506115336 61 148 7.0 11.0 0.03 0.03 0.03 84 1007.1
20260506114312 62 190 6.0 15.0 0.02 0.02 0.02 82 1007.3
20260506113335 62 121 8.0 15.0 0.02 0.02 0.02 81 1007.1
20260506112337 62 123 6.0 11.0 0.01 0.01 0.01 79 1007.2
20260506111315 63 151 7.0 12.0 0.00 0.00 0.00 77 1007.2
20260506110316 64 178 5.0 10.0 0.00 0.00 0.00 74 1006.9
20260506105338 64 107 7.0 12.0 0.00 0.00 0.00 73 1006.8
20260506104335 64 204 8.0 14.0 0.00 0.00 0.00 71 1006.6
20260506103333 64 162 7.0 15.0 0.00 0.00 0.00 70 1006.4
20260506102336 64 148 7.0 17.0 0.00 0.00 0.00 69 1006.4
20260506101339 65 184 8.0 14.0 0.00 0.00 0.00 68 1006.1
20260506100331 66 145 7.0 14.0 0.00 0.00 0.00 66 1006.0
20260506095345 66 173 8.0 16.0 0.00 0.00 0.00 63 1006.0
20260506094331 66 147 8.0 15.0 0.00 0.00 0.00 62 1005.9
20260506093311 66 160 8.0 14.0 0.00 0.00 0.00 61 1005.9
20260506092336 66 132 7.0 13.0 0.00 0.00 0.00 60 1006.0
20260506091312 67 146 7.0 12.0 0.00 0.00 0.00 60 1006.1
20260506090314 67 107 8.0 15.0 0.00 0.00 0.00 59 1006.1
20260506085314 67 192 10.0 15.0 0.00 0.00 0.00 59 1006.1
20260506084334 67 157 6.0 16.0 0.00 0.00 0.00 59 1006.3
20260506083401 67 177 7.0 14.0 0.00 0.00 0.00 60 1006.3
20260506082320 67 180 9.0 15.0 0.00 0.00 0.00 59 1006.4
20260506081320 67 243 6.0 15.0 0.00 0.00 0.00 59 1006.4
20260506080320 67 142 7.0 16.0 0.00 0.00 0.00 59 1006.3
20260506073340 67 148 6.0 14.0 0.00 0.00 0.00 56 1006.2
20260506072341 67 171 5.0 14.0 0.00 0.00 0.00 55 1006.3